Regional Weather Roundup
Issued by NWS Kansas City/Pleasant Hill, MO

Home | Current Version | Previous Version | Graphics & Text | Print | Product List | Glossary Off
Versions: 1 2 3 4 5 6 7 8 9 10 11 12 13 14 15 16 17 18 19 20 21 22 23 24 25 26 27 28

000
ASUS43 KEAX 260710
RWREAX

WEATHER ROUNDUP FOR EASTERN KANSAS AND NORTHWEST MISSOURI
NATIONAL WEATHER SERVICE KANSAS CITY/PLEASANT HILL MO
200 AM CDT FRI MAY 26 2017

KSZ040-057-103>105-MOZ028-029-037-043-260800-
...KANSAS CITY METROPOLITAN AREA...

CITY           SKY/WX    TMP DP  RH WIND       PRES   REMARKS
K.C. INTL      CLOUDY    64  57  78 SE10      29.66F
K.C. DOWNTOWN  CLOUDY    67  57  70 CALM      29.65F
LEES SUMMIT    CLOUDY    66  58  75 SE12      29.67F
OLATHE - IXD   CLOUDY    65  58  78 S7        29.67F
OLATHE - OJC   PTCLDY    64  58  80 SE10      29.64F
LAWRENCE       CLOUDY    65  60  84 CALM      29.66F

$$

MOZ001>008-011>017-020>025-030>033-038>040-044>046-053-054-260800-
...NORTHERN AND CENTRAL MISSOURI...

CITY           SKY/WX    TMP DP  RH WIND       PRES   REMARKS
ST. JOSEPH     CLOUDY    65  57  75 SE3       29.66F
MOSBY            N/A     64  55  72 SE5       29.67F
WARRENSBURG    CLOUDY    61  54  77 SE5       29.69F
WHITEMAN AFB   MOCLDY    63  63  99 S7        29.69F
CLINTON        CLOUDY    64  57  77 SE6       29.71F
SEDALIA        MOCLDY    64  58  80 SE9       29.72F
WARSAW         NOT AVBL
CHILLICOTHE      N/A     65  55  70 SE5       29.70F
KIRKSVILLE     CLOUDY    60  53  77 SE8       29.74F

$$

MOZ041-047>049-056>058-063>065-088>090-097-260800-
...EASTERN AND SOUTHERN MISSOURI...

CITY           SKY/WX    TMP DP  RH WIND       PRES   REMARKS
ST. LOUIS INTL CLOUDY    66  52  60 S7        29.79R
SPIRIT OF STL  CLOUDY    64  54  69 S3        29.77S
COLUMBIA       CLOUDY    63  55  75 SE8       29.75S
JEFFERSON CITY CLOUDY    67  54  63 E7        29.74S
ROLLA          PTCLDY    60  54  80 SE8       29.76F
OSAGE BEACH    PTCLDY    63  55  75 SE3       29.75S
SPRINGFIELD    PTCLDY    67  57  70 SE14      29.70F
BRANSON        MOCLDY    63  57  82 E10       29.73F
JOPLIN         PTCLDY    71  60  68 SE14      29.62F
WEST PLAINS      N/A     64  56  75 S8        29.80S

$$

IAZ060-094-KSZ022-034>040-054-083-096-NEZ052-066-093-260800-
...KANSAS...SOUTHEAST NEBRASKA AND IOWA...

CITY           SKY/WX    TMP DP  RH WIND       PRES   REMARKS
TOPEKA         CLOUDY    64  62  93 CALM      29.66R
MANHATTAN      LGT RAIN  65  63  93 SE16      29.59F
EMPORIA        MOCLDY    65  61  87 N10G18    29.66R
CHANUTE        MOCLDY    70  59  68 E10       29.61F
WICHITA        PTCLDY    68  61  78 E10       29.59F
OMAHA          CLOUDY    66  55  67 SE7       29.65F
LINCOLN        CLOUDY    66  57  72 SE6       29.63F
FALLS CITY     CLOUDY    64  57  78 E3        29.64F
LAMONI         CLOUDY    61  53  75 SE5       29.69F
DES MOINES     CLOUDY    63  52  67 E5        29.70F

$$





USA.gov is the U.S. government's official web portal to all federal, state and local government web resources and services.